TimePST,TemperatureF,Dew PointF,Humidity,Sea Level PressureIn,VisibilityMPH,Wind Direction,Wind SpeedMPH,Gust SpeedMPH,PrecipitationIn,Events,Conditions,WindDirDegrees,DateUTC
12:55 AM,23.0,18.0,81,30.15,9.0,Calm,Calm,-,N/A,,Scattered Clouds,0,2013-01-06 08:55:00
1:55 AM,23.0,17.1,78,30.15,10.0,ENE,3.5,-,N/A,,Mostly Cloudy,70,2013-01-06 09:55:00
2:55 AM,23.0,17.1,78,30.15,10.0,Calm,Calm,-,N/A,,Mostly Cloudy,0,2013-01-06 10:55:00
3:55 AM,23.0,17.6,80,30.10,10.0,Calm,Calm,-,N/A,,Overcast,0,2013-01-06 11:55:00
4:55 AM,23.0,17.1,78,30.15,9.0,Calm,Calm,-,N/A,,Overcast,0,2013-01-06 12:55:00
5:55 AM,24.1,18.0,77,30.15,9.0,Calm,Calm,-,N/A,,Overcast,0,2013-01-06 13:55:00
6:55 AM,24.1,18.0,77,30.15,10.0,Calm,Calm,-,N/A,,Overcast,0,2013-01-06 14:55:00
7:55 AM,23.0,18.0,81,30.17,10.0,Calm,Calm,-,N/A,,Overcast,0,2013-01-06 15:55:00
8:55 AM,25.0,19.0,78,30.19,8.0,Calm,Calm,-,N/A,,Overcast,0,2013-01-06 16:55:00
9:55 AM,25.0,19.0,78,30.18,8.0,Calm,Calm,-,N/A,,Mostly Cloudy,0,2013-01-06 17:55:00
10:55 AM,27.0,19.9,75,30.18,8.0,Calm,Calm,-,N/A,,Mostly Cloudy,0,2013-01-06 18:55:00
11:55 AM,28.9,19.9,69,30.16,8.0,Calm,Calm,-,N/A,,Mostly Cloudy,0,2013-01-06 19:55:00
12:55 PM,30.9,19.9,64,30.16,9.0,NNE,3.5,-,N/A,,Mostly Cloudy,20,2013-01-06 20:55:00
1:55 PM,32.0,19.9,61,30.14,10.0,South,4.6,-,N/A,,Mostly Cloudy,180,2013-01-06 21:55:00
2:55 PM,34.0,21.0,59,30.14,10.0,Calm,Calm,-,N/A,,Mostly Cloudy,0,2013-01-06 22:55:00
3:55 PM,33.1,21.0,61,30.15,10.0,ESE,4.6,-,N/A,,Mostly Cloudy,120,2013-01-06 23:55:00
4:55 PM,34.0,19.9,56,30.17,10.0,Calm,Calm,-,N/A,,Mostly Cloudy,0,2013-01-07 00:55:00
5:55 PM,32.0,21.0,64,30.17,10.0,South,3.5,-,N/A,,Mostly Cloudy,180,2013-01-07 01:55:00
6:55 PM,30.9,21.0,67,30.18,10.0,Calm,Calm,-,N/A,,Partly Cloudy,0,2013-01-07 02:55:00
7:55 PM,28.0,21.0,75,30.21,9.0,Calm,Calm,-,N/A,,Partly Cloudy,0,2013-01-07 03:55:00
8:55 PM,28.9,21.0,72,30.24,7.0,Calm,Calm,-,N/A,,Partly Cloudy,0,2013-01-07 04:55:00
9:55 PM,26.1,19.9,78,30.25,8.0,Calm,Calm,-,N/A,,Clear,0,2013-01-07 05:55:00
10:55 PM,23.0,19.0,85,30.26,7.0,Calm,Calm,-,N/A,,Clear,0,2013-01-07 06:55:00
11:55 PM,23.0,18.0,81,30.28,7.0,Calm,Calm,-,N/A,,Clear,0,2013-01-07 07:55:00